DW9005 Weather Reports


time (UTC)temp
C
wind
direction
speed
KPH
gust
KPH
rain 1hr
cm
rain 24hr
cm
rain mn
cm
humidity
%
barometer
mb
20260508011603 17 355 0.0 0.0 0.00 0.00 0.00 80 1015.3
20260508010104 17 355 0.0 0.0 0.00 0.00 0.00 79 1015.0
20260508004558 17 317 0.0 0.0 0.00 0.00 0.00 80 1014.8
20260508003103 18 317 0.0 0.0 0.00 0.00 0.00 77 1014.7
20260508001549 18 309 0.0 0.0 0.00 0.00 0.00 74 1014.7
20260508000048 19 338 0.0 0.0 0.00 0.00 0.00 72 1014.4
20260507234548 19 287 0.0 0.0 0.00 0.00 0.00 71 1014.3
20260507233048 20 355 0.0 0.0 0.00 0.00 0.00 71 1014.1
20260507231529 20 321 0.0 0.0 0.00 0.00 0.00 66 1014.1
20260507230029 20 348 0.0 0.0 0.00 0.00 0.00 68 1013.9
20260507224515 21 290 0.0 0.0 0.00 0.00 0.00 68 1014.0
20260507223011 21 294 0.0 0.0 0.00 0.00 0.00 67 1013.9
20260507221552 21 344 0.0 0.0 0.00 0.00 0.00 67 1013.7
20260507220054 21 344 0.0 0.0 0.00 0.00 0.00 69 1013.5
20260507214535 21 339 0.0 0.0 0.00 0.00 0.00 71 1013.5
20260507213035 21 5 0.0 0.0 0.00 0.00 0.00 73 1013.5
20260507211516 21 88 0.0 0.0 0.00 0.00 0.00 71 1013.3
20260507210016 21 40 0.0 0.0 0.00 0.00 0.00 71 1013.3
20260507204611 21 316 0.0 0.0 0.00 0.00 0.00 70 1013.3
20260507203055 21 296 0.0 0.0 0.00 0.00 0.00 72 1013.5
20260507201540 21 313 0.0 0.0 0.00 0.00 0.00 71 1013.5
20260507200037 20 316 0.0 0.0 0.00 0.00 0.00 77 1013.5
20260507194515 20 5 0.0 0.0 0.00 0.00 0.00 75 1013.6
20260507193013 20 254 0.0 0.0 0.00 0.00 0.00 76 1013.7
20260507191552 19 262 0.0 0.0 0.00 0.00 0.00 79 1013.6
20260507190101 18 298 0.0 0.0 0.00 0.00 0.00 80 1013.6
20260507184538 18 301 0.0 0.0 0.00 0.00 0.00 81 1014.1
20260507183037 18 327 0.0 0.0 0.00 0.00 0.00 82 1014.2
20260507181513 17 259 0.0 0.0 0.00 0.00 0.00 84 1014.5
20260507180013 17 318 0.0 0.0 0.00 0.00 0.00 85 1014.5
20260507174554 17 257 0.0 0.0 0.00 0.00 0.00 87 1014.7
20260507173056 17 296 0.0 0.0 0.00 0.00 0.00 89 1014.7
20260507171542 16 259 0.0 0.0 0.00 0.00 0.00 90 1014.9
20260507170040 16 273 0.0 0.0 0.00 0.00 0.00 91 1015.0
20260507164539 15 330 0.0 0.0 0.00 0.00 0.00 91 1014.9
20260507163038 16 325 0.0 0.0 0.00 0.00 0.00 91 1014.7
20260507161539 15 327 0.0 0.0 0.00 0.00 0.00 91 1014.5
20260507160038 15 315 0.0 0.0 0.00 0.00 0.00 91 1014.2
20260507154538 15 308 0.0 0.0 0.00 0.00 0.00 91 1014.4
20260507153035 16 274 0.0 0.0 0.00 0.00 0.00 91 1014.1
20260507151516 16 213 0.0 0.0 0.00 0.00 0.00 90 1014.0
20260507150013 17 297 0.0 0.0 0.00 0.00 0.00 90 1013.7
20260507144557 17 302 0.0 0.0 0.00 0.00 0.00 91 1013.5
20260507143052 17 327 0.0 0.0 0.00 0.00 0.00 91 1013.4
20260507141534 17 257 0.0 0.0 0.00 0.00 0.00 92 1013.6
20260507140041 16 325 0.0 0.0 0.00 0.00 0.00 92 1013.1
20260507134519 16 16 0.0 0.0 0.00 0.00 0.00 92 1013.3
20260507133014 16 350 0.0 0.0 0.00 0.00 0.00 92 1013.0
20260507131609 16 332 0.0 0.0 0.00 0.00 0.00 92 1012.9
20260507130109 16 10 0.0 0.0 0.00 0.00 0.00 93 1012.5
20260507124543 -17 0.0 0.0 0.00 0.00 0.00 1012.9
20260507123038 -17 0.0 0.0 0.00 0.00 0.00 1012.5
20260507121511 -17 0.0 0.0 0.00 0.00 0.00 1012.0
20260507120007 -17 0.0 0.0 0.00 0.00 0.00 1012.0
20260507114548 -17 0.0 0.0 0.00 0.00 0.00 1011.6
20260507113043 -17 0.0 0.0 0.00 0.00 0.00 1011.3
20260507111523 -17 0.0 0.0 0.00 0.00 0.00 1011.7
20260507110017 -17 0.0 0.0 0.00 0.00 0.00 1011.5
20260507104555 -17 0.0 0.0 0.00 0.00 0.00 1010.9
20260507103054 -17 0.0 0.0 0.00 0.00 0.00 1011.0
20260507101535 -17 0.0 0.0 0.00 0.00 0.00 1010.3
20260507100032 -17 0.0 0.0 0.00 0.00 0.00 1010.0
20260507094503 -17 0.0 0.0 0.00 0.00 0.00 1010.4
20260507093101 -17 0.0 0.0 0.00 0.00 0.00 1010.3
20260507091539 17 292 0.0 0.0 0.00 0.00 0.00 92 1010.4
20260507090041 17 230 0.0 0.0 0.00 0.00 0.00 93 1010.1
20260507084519 17 311 0.0 0.0 0.00 0.00 0.00 93 1009.8
20260507083033 17 313 0.0 0.0 0.00 0.00 0.00 93 1009.8
20260507081501 17 313 0.0 0.0 0.00 0.00 0.00 92 1009.7
20260507080001 17 313 0.0 0.0 0.00 0.00 0.00 93 1009.9
20260507074605 17 313 0.0 0.0 0.00 0.00 0.00 93 1010.1
20260507073049 17 319 0.0 0.0 0.00 0.00 0.00 93 1010.4
20260507071557 17 350 0.0 0.0 0.00 0.00 0.00 93 1009.7
20260507070021 18 355 0.0 0.0 0.00 0.00 0.00 93 1010.3
20260507064520 18 321 0.0 0.0 0.00 0.00 0.00 93 1010.6
20260507063104 18 327 0.0 0.0 0.00 0.00 0.00 93 1010.7
20260507061600 18 335 0.0 0.0 0.00 0.00 0.00 93 1011.2
20260507060041 18 200 0.0 0.0 0.00 0.00 0.00 93 1011.1
20260507054549 18 306 0.0 0.0 0.00 0.00 0.00 93 1011.8
20260507053023 18 281 0.0 0.0 0.00 0.00 0.00 93 1011.9
20260507051522 18 275 0.0 0.0 0.00 0.00 0.00 93 1011.6
20260507050004 18 347 0.0 0.0 0.00 0.00 0.00 93 1011.2
20260507044501 18 9 0.0 0.0 0.00 0.00 0.00 93 1011.8
20260507043043 18 303 0.0 0.0 0.00 0.00 0.00 93 1012.3
20260507041540 18 330 0.0 0.0 0.00 0.00 0.00 93 1011.8
20260507040020 18 282 0.0 0.0 0.00 0.00 0.00 93 1012.3
20260507034521 18 158 0.0 0.0 0.00 0.00 0.00 93 1011.4
20260507033001 18 136 0.0 0.0 0.00 0.00 0.00 93 1010.7
20260507031501 19 300 0.0 0.0 0.00 0.00 0.00 93 1013.4
20260507030043 19 138 0.0 0.0 0.00 0.00 0.00 93 1012.2
20260507024543 19 350 0.0 0.0 0.00 0.00 0.00 93 1011.9
20260507023028 19 330 0.0 0.0 0.00 0.00 0.00 93 1011.9
20260507021523 19 5 0.0 0.0 0.00 0.00 0.00 93 1012.0
20260507020003 19 201 0.0 0.0 0.00 0.00 0.00 93 1012.2
20260507014502 20 304 0.0 0.0 0.00 0.00 0.00 92 1012.1
20260507013044 22 335 0.0 0.0 0.00 0.00 0.00 93 1011.1